Location: Belfast
(54.5830°N, 5.9330°W)
Time: 16:06:06
(UTC+01:00)

X-37B - Visible Passes

Search period start: 16 April 2021 00:00
Search period end: 26 April 2021 00:00
Orbit: 380 x 394 km, 45.0° (Epoch: 07 April)

Date Brightness Start Highest point End Pass type
(mag) Time Alt. Az. Time Alt. Az. Time Alt. Az.
19 Apr 3.1 04:53:08 10° S 04:54:08 11° SSE 04:55:07 10° SE visible
21 Apr 2.8 04:33:10 13° S 04:33:43 13° S 04:35:23 10° SE visible
22 Apr 2.6 05:09:30 10° SW 05:11:27 15° S 05:13:25 10° SE visible
23 Apr 2.7 04:13:35 15° S 04:13:35 15° S 04:15:15 10° SE visible
24 Apr 2.6 04:50:01 13° SSW 04:51:04 15° S 04:52:55 10° SSE visible
25 Apr 2.9 03:54:14 13° SSE 03:54:14 13° SSE 03:54:56 10° SE visible
